Location: Gu�tanj
(46.5431°N, 14.9692°E)
Time: 06:53:12
(UTC+00:00)

SAR-Lupe-4 - Pass Details

Date: 03 March 2021
Orbit: 481 x 485 km, 98.2° (Epoch: 26 March)

Event Time Altitude Azimuth Distance (km) Brightness Sun altitude
Rises 18:05:01 0° 12° (NNE) 2,555 7.2 -13.8°
Reaches altitude 10° 18:07:05 10° 11° (N) 1,670 6.2 -14.2°
Maximum altitude 18:10:40 76° 286° (WNW) 503 3.7 -14.8°
Drops below altitude 10° 18:14:13 10° 200° (SSW) 1,657 6.4 -15.4°
Sets 18:16:16 0° 199° (SSW) 2,532 7.4 -15.8°
